STARLINK-1080, 44961

Orbit data source: Space-Track

STARLINK-1080, 44961 is a payload satellite owned by SpaceX/Seattle (US) in LEO that was launched on Tue, 07 Jan 2020 UTC via an FALCON 9 launch vehicle from the Air Force Eastern Test Range (AFETR). Payload-class satellites include a variety of spacecraft equipped with specific instruments for various scientific and technological missions. These include communications satellites like Starlink; space stations such as the ISS; scientific satellites like the Hubble; Earth observation satellites from companies like Planet Labs, Umbra, and HawkEye 360; GPS; miniature CubeSats for education and research; and military/defense satellites.

Loading next visibility...
Identifier
44961, 2020-001AZ
Orbit
LEO
Country
Flag of USUS
Related business
Manufacturer
SpaceX/Seattle
Mission
Operational Commercial Communications
Bus & Motor
STARLINK, Unknown motor
Mass
260 kg wet, ~248 kg dry
Launch date (UTC)
2020-01-07 (6 years ago)
Launch vehicle
FALCON 9
Launch site
Air Force Eastern Test Range (AFETR)
Object type
Payload
Rocket body
Debris
Shape & HBR
Box + 1 Pan, 10.1 m
Radar Cross Section
13.562 m², Large (>1 m²)

Expand to show TLE details & history
Last TLE update: 8 hours ago

TLE from 8 hours ago
0 STARLINK-1080
1 44961U 20001AZ  25352.00002315  .00014140  00000-0  89932-3 0  9999
2 44961  53.0540 313.3201 0001002 133.1459 142.7251 15.09057581  5700
Epoch: 2025-12-18T00:00Z
TLE epoch observation values (Epoch: 2025-12-18T00:00:02.000Z)
Latitude
-52.80858°
Longitude
146.14721°
Altitude
557.98 km
Speed
7.582 km/s
True Right ascension
15h 32m 04s
True Declination
-52° 38' 17"
Sunlit
Object was in daylight at epoch
Visualization orbit readout
Latitude
Unknown
Longitude
Unknown
Altitude
Unknown
Speed
Unknown
Apparent Right ascension
Unknown
Apparent Declination
Unknown
Sunlit
N/A
Visualization observer readout
Local Sidereal Time
07:02:59
Azimuth
Unknown
Elevation
Unknown
Doppler factor
Unknown
Orbital elements
Apogee altitude
540.043 km
Perigee altitude
538.656 km
Semi-major axis
6,917.487 km
Eccentricity
0.0001
Inclination
53.054°
RAAN
313.3201°
Arg. of periapsis
133.1459°
True anomaly
142.73205°
Mean anomaly
142.7251°
Eccentric anomaly
142.72858°
Mean motion
3.77243 °/min
Orbital period
95.43 mins
BSTAR
0.00089932
Loading maneuver chart data...
Computing Atmospheric mass density...

Documentation

Showing up to 5 results
|